Terminal Aerodrome Forecast
Issued by NWS

Home | Current Version | Previous Version | Text Only | Print | Product List | Glossary On
Versions: 1 2 3 4 5 6 7 8 9 10 11 12 13 14 15 16 17 18 19 20 21 22 23 24 25 26 27 28 29
000
FTUS43 KSGF 181300 AAA
TAFJLN
TAF AMD
KJLN 181353Z 1814/1912 21012G20KT 5SM -RA BR SCT025 OVC100
     FM181800 12006KT P6SM SCT030 BKN120
     FM190400 14005KT P6SM SCT015 SCT200
     FM191100 15005KT P6SM FEW005=

USA.gov is the U.S. government's official web portal to all federal, state and local government web resources and services.